Flag for Finland Weather past 2 weeks in Jyväskylä, Finland

Now
27 °F

Scattered clouds.


Feels Like: 16 °F
Forecast: 27 / 35 °F
Wind: 12 mph from Southeast

Location: Jyvaskyla Airport

Current Time: Oct 23, 2014 at 4:13:15 PM

Latest Report: Oct 23, 2014 at 3:20 PM


Visibility: N/A

Pressure: 30.54 "Hg

Humidity: 64%

Dew point: 16 °F

Location of JyväskyläLocation

Historic Weather in Jyväskylä — Graph

°F

Jyväskylä temperature yesterday

Maximum temperature yesterday: 27 °F (at 3:50 PM)
Minimum temperature yesterday: 14 °F (at 9:20 PM)
Average temperature yesterday: 21 °F

Past Weeks' High & Low Weather Summary

 TemperatureHumidityPressure
High54 °F (Oct 9, 2:20 PM)100% (Oct 8, 3:50 PM)30.57 "Hg (Oct 8, 3:50 PM)
Low9 °F (Oct 23, 6:50 AM)54% (Oct 22, 3:50 PM)29.30 "Hg (Oct 20, 4:20 AM)
Average35 °F91%29.94 "Hg
* Reported Oct 8 2:20 PM — Oct 23 2:50 PM, Jyväskylä, Weather by CustomWeather, © 2014

Note: Actual official high and low records may vary slightly from our data, if they occured in-between our weather recording intervals... More about our weather records

Advertising

Jyväskylä weather history for previous 24 hours

 ConditionsComfort  
Time TempWeatherWind HumidityBarometerVisibility
2:50 PM
Oct 23
25 °FScattered clouds.10 mph74%30.57 "HgN/A
2:20 PM25 °FScattered clouds.12 mph69%30.57 "HgN/A
1:50 PM25 °FScattered clouds.12 mph69%30.57 "HgN/A
1:20 PM23 °FPartly sunny.12 mph74%30.57 "HgN/A
12:50 PM23 °FPartly sunny.13 mph74%30.57 "HgN/A
12:20 PM21 °FPartly sunny.12 mph80%30.57 "HgN/A
11:50 AM21 °FPartly sunny.12 mph80%30.57 "HgN/A
11:20 AM19 °FPartly sunny.9 mph86%30.57 "HgN/A
10:50 AM19 °FSunny.9 mph86%30.54 "Hg10 mi
10:20 AM18 °FSunny.6 mph86%30.54 "Hg10 mi
9:50 AM16 °FSunny.5 mph93%30.54 "Hg10 mi
9:20 AM14 °FPassing clouds.3 mph92%30.54 "HgN/A
8:50 AM12 °FClear.3 mph92%30.54 "Hg10 mi
8:20 AM9 °FClear.1 mph92%30.54 "Hg10 mi
7:50 AM10 °FClear.No wind100%30.54 "Hg10 mi
7:20 AM10 °FClear.2 mph85%30.51 "Hg10 mi
6:50 AM9 °FClear.2 mph92%30.51 "Hg10 mi
6:20 AM12 °FClear.No wind100%30.51 "Hg10 mi
5:50 AM10 °FClear.2 mph92%30.51 "Hg10 mi
5:20 AM10 °FClear.No wind100%30.51 "Hg10 mi
4:50 AM10 °FClear.2 mph92%30.51 "Hg10 mi
4:20 AM12 °FClear.2 mph92%30.51 "Hg10 mi
3:50 AM12 °FClear.No wind92%30.51 "Hg10 mi
3:20 AM18 °FClear.1 mph93%30.48 "Hg10 mi
2:50 AM18 °FClear.6 mph93%30.48 "Hg10 mi
2:20 AM19 °FClear.2 mph86%30.48 "Hg10 mi
1:50 AM19 °FClear.2 mph93%30.45 "Hg10 mi
1:20 AM19 °FClear.6 mph93%30.45 "Hg10 mi
12:50 AM19 °FClear.No wind93%30.45 "Hg10 mi
12:20 AM19 °FClear.5 mph93%30.45 "Hg10 mi
11:50 PM
Oct 22
19 °FPassing clouds.1 mph93%30.42 "HgN/A
11:20 PM19 °FClear.3 mph93%30.42 "Hg10 mi
10:50 PM16 °FPassing clouds.3 mph93%30.42 "HgN/A
10:20 PM14 °FClear.2 mph92%30.42 "Hg10 mi
9:50 PM14 °FClear.3 mph92%30.39 "Hg10 mi
9:20 PM14 °FClear.5 mph92%30.39 "Hg10 mi
8:50 PM19 °FClear.1 mph79%30.39 "Hg10 mi
8:20 PM19 °FClear.1 mph79%30.39 "Hg10 mi
7:50 PM18 °FClear.3 mph86%30.36 "Hg10 mi
7:20 PM18 °FClear.2 mph86%30.36 "Hg10 mi
6:50 PM21 °FClear.2 mph74%30.36 "Hg10 mi
6:20 PM23 °FSunny.3 mph68%30.36 "Hg10 mi
5:20 PM25 °FSunny.8 mph63%30.36 "Hg10 mi
4:50 PM25 °FSunny.9 mph63%30.33 "Hg10 mi
4:20 PM27 °FSunny.9 mph54%30.33 "Hg10 mi
Weather by CustomWeather, © 2014

See weather overviewHow to use our weather pages